"Pseudo-MPEC" for P21oaUC

Created 2021 Nov 27 5:07:14 UT using Find_Orb

Click here for an explanation of pseudo-MPECs

 
 Astrometry: 
     P21oaUC  C2021 11 06VK_:aWUfWL5B=!RuJF9rmfPsEYDnjoT^019vB@v1bng;Ck;\q4)]F52
     P21oaUC  C2021 11 06EVcYTWIIe-3P!csA:^].KxQ:g3NqJAstrometryFpredacted;Z/F52
     P21oaUC  C2021 11 06O4@x7``J6;hc6(Hs6MLAjf.#nY(nPb#YwwXh]rmN3[k#clickcmvF52
     P21oaUC  C2021 11 06SAHteh\B6pJ*F3herea%d97RvcE$PJSCqPvlRJWu-T1#$p#kW\UpF52
     P21oaUC  C2021 11 06NbG7a%hB)Ae!KGXfYSM3d*k4-]FDlprTq/wQ^ZM#5R?]0`c3O(@%F52
     P21oaUC  C2021 11 06WbIJYuXP_N'6fb=Dwpc4IPj]forYrUThZ1+^5YexplanationnHvF52

Station data:
(F52) Pan-STARRS 2, Haleakala  (N20.707384 W156.255910)  US/Hawaii. 1.8-m
   Ritchey-Chrétien + CCD.

Orbital elements:  P21oaUC
   Perihelion 2022 Aug 31.143869 +/- 40.7204 TT =  3:27:10 (JD 2459822.643869)
Epoch 2021 Nov  6.0 TT = JDT 2459524.5                        AutoNEOCP
M 269.94746636 +/- 21.335255        (J2000 ecliptic)
n   0.30204388 +/- 0.272051         Peri.  179.94712 +/- 97.969011
a   2.20000000 +/- 1.45742          Node   321.07663 +/- 38.926905
e   0.0000002 +/- 0.246957          Incl.    5.87141 +/- 4.9443733
P   3.26                   H 19.6   G  0.15   U 11.9  SR
q 2.19999950 +/- 0.369915    Q 2.20000049 +/- 61.4146
1 of 6 observations 2021 Nov. 6 (0.00 sec); mean residual 0".02
Residuals in arcseconds: 
211106 F52  .02+  .02+    211106 F52( .00   .00 )   211106 F52( .00   .00 )   
211106 F52( .00   .00 )   211106 F52( .00   .00 )   211106 F52( .00   .00 )   

Ephemerides (geocentric):
Date (UTC) HH   RA              Dec         delta   r     elong  mag " sig PA
---- -- -- --  -------------   -----------  ------ ------ -----  --- ---- ---
2021 11 27 05  04 01 18.230   +29 29 34.76  .33540 1.3193 171.3 18.3  68d  25
2021 11 27 06  04 01 19.110   +29 28 58.64  .33553 1.3194 171.3 18.3  68d  25
2021 11 27 07  04 01 19.990   +29 28 22.53  .33567 1.3196 171.3 18.3  68d  25
2021 11 27 08  04 01 20.870   +29 27 46.42  .33580 1.3197 171.3 18.3  68d  25
2021 11 27 09  04 01 21.749   +29 27 10.31  .33594 1.3198 171.3 18.3  68d  25
2021 11 27 10  04 01 22.628   +29 26 34.20  .33607 1.3199 171.3 18.3  68d  25
2021 11 27 11  04 01 23.507   +29 25 58.09  .33620 1.3201 171.3 18.3  68d  25
2021 11 27 12  04 01 24.385   +29 25 21.98  .33634 1.3202 171.3 18.3  68d  25
2021 11 27 13  04 01 25.263   +29 24 45.87  .33647 1.3203 171.3 18.3  68d  25
2021 11 27 14  04 01 26.141   +29 24 09.76  .33661 1.3205 171.3 18.3  68d  25
2021 11 27 15  04 01 27.018   +29 23 33.66  .33674 1.3206 171.4 18.3  68d  25
2021 11 27 16  04 01 27.895   +29 22 57.55  .33688 1.3207 171.4 18.3  68d  25
2021 11 27 17  04 01 28.772   +29 22 21.45  .33702 1.3209 171.4 18.3  68d  25
2021 11 27 18  04 01 29.648   +29 21 45.35  .33715 1.3210 171.4 18.3  68d  25
2021 11 27 19  04 01 30.524   +29 21 09.25  .33729 1.3211 171.4 18.3  68d  25
2021 11 27 20  04 01 31.400   +29 20 33.15  .33743 1.3213 171.4 18.3  68d  25
2021 11 27 21  04 01 32.276   +29 19 57.06  .33756 1.3214 171.4 18.3  68d  25
2021 11 27 22  04 01 33.151   +29 19 20.96  .33770 1.3215 171.4 18.3  68d  25
2021 11 27 23  04 01 34.026   +29 18 44.87  .33784 1.3216 171.4 18.3  68d  25
2021 11 28 00  04 01 34.901   +29 18 08.78  .33798 1.3218 171.4 18.3  68d  25
2021 11 28 01  04 01 35.776   +29 17 32.70  .33811 1.3219 171.4 18.3  68d  25
2021 11 28 02  04 01 36.650   +29 16 56.61  .33825 1.3220 171.4 18.3  68d  25
2021 11 28 03  04 01 37.524   +29 16 20.53  .33839 1.3222 171.4 18.3  68d  25
2021 11 28 04  04 01 38.398   +29 15 44.45  .33853 1.3223 171.4 18.3  68d  25
2021 11 28 05  04 01 39.272   +29 15 08.38  .33867 1.3224 171.4 18.3  68d  25
2021 11 28 06  04 01 40.146   +29 14 32.30  .33881 1.3226 171.4 18.3  68d  25
2021 11 28 07  04 01 41.019   +29 13 56.23  .33895 1.3227 171.4 18.3  68d  25
2021 11 28 08  04 01 41.893   +29 13 20.16  .33909 1.3228 171.4 18.3  68d  25
2021 11 28 09  04 01 42.766   +29 12 44.10  .33922 1.3230 171.4 18.3  68d  25
2021 11 28 10  04 01 43.639   +29 12 08.04  .33936 1.3231 171.4 18.3  68d  25
2021 11 28 11  04 01 44.512   +29 11 31.98  .33951 1.3232 171.4 18.3  68d  25
2021 11 28 12  04 01 45.384   +29 10 55.93  .33965 1.3234 171.4 18.3  68d  25
2021 11 28 13  04 01 46.257   +29 10 19.88  .33979 1.3235 171.4 18.3  68d  25
2021 11 28 14  04 01 47.130   +29 09 43.83  .33993 1.3236 171.4 18.3  68d  25
2021 11 28 15  04 01 48.002   +29 09 07.78  .34007 1.3238 171.4 18.3  68d  25
2021 11 28 16  04 01 48.874   +29 08 31.74  .34021 1.3239 171.4 18.3  68d  25
2021 11 28 17  04 01 49.747   +29 07 55.71  .34035 1.3240 171.4 18.3  68d  25
2021 11 28 18  04 01 50.619   +29 07 19.68  .34049 1.3242 171.4 18.3  68d  25
2021 11 28 19  04 01 51.491   +29 06 43.65  .34064 1.3243 171.4 18.3  68d  25
2021 11 28 20  04 01 52.363   +29 06 07.63  .34078 1.3244 171.4 18.3  68d  25
2021 11 28 21  04 01 53.235   +29 05 31.61  .34092 1.3246 171.4 18.3  69d  25
2021 11 28 22  04 01 54.107   +29 04 55.59  .34106 1.3247 171.4 18.3  69d  25
2021 11 28 23  04 01 54.979   +29 04 19.58  .34121 1.3248 171.4 18.3  69d  25
2021 11 29 00  04 01 55.851   +29 03 43.57  .34135 1.3250 171.4 18.3  69d  25
2021 11 29 01  04 01 56.722   +29 03 07.57  .34150 1.3251 171.4 18.3  69d  25
2021 11 29 02  04 01 57.594   +29 02 31.58  .34164 1.3253 171.4 18.3  69d  25
2021 11 29 03  04 01 58.466   +29 01 55.59  .34178 1.3254 171.4 18.3  69d  25
2021 11 29 04  04 01 59.338   +29 01 19.60  .34193 1.3255 171.4 18.3  69d  25